Results By Division


Marshman® Triathlon Presented by Kinetic PT

Race Date: Sunday September 20, 2009
Description: 1/4 Mile Swim~12.5 Mile Bike~2 Mile Run
Race Category: Triathlon
# Entrants in Division: 31

Choose:
 Division
Place
Overall
Place
NameCityStateRace AgeGenderDivisionTimeBib#
View 1 116 Tweedie, Catherine Philadelphia PA 28 F 25-29 1:12:01 455
View 2 135 Fourney, Jill Downingtown PA 26 F 25-29 1:13:12 476
View 3 139 Furniss, Julia Lemoyne PA 26 F 25-29 1:13:20 472
View 4 160 Henninger, Elizabeth Newark DE 25 F 25-29 1:14:27 457
View 5 165 Talese, Andrea Philadelphia PA 26 F 25-29 1:14:34 466
View 6 170 Witmer, Tara Pasadena MD 28 F 25-29 1:14:43 478
View 7 176 Ambruch, Tara Hatfield PA 26 F 25-29 1:14:52 462
View 8 213 Mcconnell, Rebecca West Chester PA 27 F 25-29 1:16:45 467
View 9 227 Swymer, Kaitlin Exton PA 26 F 25-29 1:17:22 477
View 10 272 Chen, Pavla Kennett Square PA 28 F 25-29 1:19:56 464
View 11 317 O'connor, Liz Morristown NJ 27 F 25-29 1:22:14 470
View 12 324 Chamberlin, Kelly Lowell MA 28 F 25-29 1:22:41 468
View 13 326 Todd, Jessica Chester Springs PA 28 F 25-29 1:22:47 480
View 14 372 Mccarthy, Lindsay West Chester PA 27 F 25-29 1:25:22 473
View 15 374 Shupp, Heather Ardmore PA 26 F 25-29 1:25:31 471
View 16 407 Smiley, Brianne East Stroudsburg PA 29 F 25-29 1:27:45 483
View 17 414 Hartley, Renee Abindon MD 27 F 25-29 1:28:00 458
View 18 426 Lantzy, Rachael West Conshohocken PA 26 F 25-29 1:28:59 469
View 19 474 Daveler, Molly Lansdale PA 29 F 25-29 1:32:05 456
View 20 482 Burgh, Jessica Philadelphia PA 26 F 25-29 1:32:55 459
View 21 494 Murphy, Lisa Downingtown PA 28 F 25-29 1:34:31 474
View 22 497 Albert, Stephanie Boyertown PA 29 F 25-29 1:34:52 465
View 23 498 Herscher, Charlotte Plymouth Meeting PA 29 F 25-29 1:35:04 461
View 24 499 Fitch, Grace Ambler PA 26 F 25-29 1:35:26 482
View 25 531 Empet, Rebecca Downingtown PA 27 F 25-29 1:38:05 479
View 26 547 Stotts, Stephanie Newark DE 27 F 25-29 1:39:26 481
View 27 568 Garber, Elizabeth York PA 25 F 25-29 1:41:20 450
View 28 592 Rupertus, Stephanie Philadelphia PA 26 F 25-29 1:44:00 484
View 29 610 K, S   25 F 25-29 1:47:43 460
View 30 618 Robinson, Jessica Arlington VA 26 F 25-29 1:50:17 463
View 31 620 Morley, Lucy Souderton PA 28 F 25-29 1:50:21 475